IRIDIUM 130 (43073 NORAD) Tracking and Keplerian Element Data

This shows tracking and keplerian element data for the satellite.

Feedback or suggestion? Click here.




ElementValue
Catalog43073
NameIRIDIUM 130
Epoch Orbit24922
Epoch Day269.46462451
Epoch Year2022
RAAN170.4426
Inclination86.4046
Eccentricity0.0001986
Argument of Perigee89.6517
Mean Anonmoly270.4906
Mean Motion14.34218954
Decay Rate2.08E-06
L11 43073U 17083D 22269.46462451 .00000208 00000+0 67180-4 0 9994
L22 43073 86.4046 170.4426 0001986 89.6517 270.4906 14.34218954249229

Live tracking and technical data element details for IRIDIUM 130 (NORAD 43073). IRIDIUM 130 can be tracked NOW for your location showing map with azimuth and elevation plus other details from your city location.

Track the satellite on the map from your city or location and see movement details for azimuth, elevation, latitude, longitude, range, height, and movement on the map or in text.







IsCatalogInMostPopularTable: catalog: 43073, numindb: 607
Update: records affected: 1



GetName: 43073 IRIDIUM 130

Hit Count: updated at: Fri, 30 Sep 2022 03:49:25 GMT